Location: Arthez
(43.0833°N, 0.2500°W)
Time: 07:21:42
(UTC+00:00)

USA 215 - Pass Details

Date: 23 October 2021
Orbit: 1099 x 1109 km, 123.0° (Epoch: 20 November)

Event Time Altitude Azimuth Distance (km) Brightness Sun altitude
Exits shadow 18:05:41 - 46° (NE) 3,372 5.4 -11.6°
Reaches altitude 10° 18:06:48 10° 43° (NE) 2,964 5.1 -11.8°
Maximum altitude 18:12:54 44° 334° (NNW) 1,490 4.1 -13.0°
Drops below altitude 10° 18:19:00 10° 265° (W) 2,963 7.0 -14.1°
Sets 18:21:36 0° 259° (W) 3,920 8.0 -14.5°
